Powrót do katalogu

COSMOS 2251 DEB

AktywnyLEO
NORAD 37533·DEBRIS·🇷🇺 Russia

Wystrzelony Jun 16, 1993 z Plesetsk Cosmodrome

Loading…

Następne Przeloty (najbliższe 24 godziny)

TLE

NieaktualneSource: Space-Track

Epoka: Sep 2, 2026, 21:49 UTC

1 37533U 93036BNN 26245.90946049  .00001002  00000-0  48457-3 0  9996
2 37533  74.0653  85.5376 0157922  78.5051 283.3775 14.13422093666523

Śledź COSMOS 2251 DEB w czasie rzeczywistym z AllMySat

Download on the App Store